This is the latest recevied weather packets stored in our database for station/object KI5NXU. If no packets are shown the sender has not sent any weather packets the latest 10 day(s).
| Time | Temp. | Humidity | Pressure | Rain* | Wind** | Luminosity | Snow |
|---|---|---|---|---|---|---|---|
| 1777993126 | 25.56° C | 72% | 1003.9 hPa | 0 mm | - | 266 W/m² | - |
| 1777992825 | 25° C | 72% | 1004 hPa | 0 mm | - | 302 W/m² | - |
| 1777992522 | 25° C | 72% | 1003.8 hPa | 0 mm | - | 363 W/m² | - |
| 1777992221 | 24.44° C | 74% | 1003.8 hPa | 0 mm | - | 174 W/m² | - |
| 1777991917 | 25° C | 74% | 1004 hPa | 0 mm | - | 174 W/m² | - |
| 1777991615 | 25° C | 74% | 1003.9 hPa | 0 mm | - | 267 W/m² | - |
| 1777991312 | 24.44° C | 74% | 1004 hPa | 0 mm | - | 373 W/m² | - |
| 1777991010 | 24.44° C | 75% | 1003.6 hPa | 0 mm | - | 342 W/m² | - |
| 1777990707 | 24.44° C | 75% | 1003.7 hPa | 0 mm | - | 343 W/m² | - |
| 1777990404 | 23.89° C | 76% | 1003.5 hPa | 0 mm | - | 304 W/m² | - |
| 1777989797 | 23.33° C | 78% | 1003.5 hPa | 0 mm | - | 202 W/m² | - |
| 1777989494 | 23.33° C | 78% | 1003.4 hPa | 0 mm | - | 215 W/m² | - |
| 1777989190 | 23.33° C | 78% | 1003.6 hPa | 0 mm | - | 211 W/m² | - |
| 1777988886 | 23.33° C | 78% | 1003.5 hPa | 0 mm | - | 175 W/m² | - |
| 1777988583 | 23.33° C | 78% | 1003.8 hPa | 0 mm | - | 159 W/m² | - |
| 1777988280 | 22.78° C | 78% | 1003.5 hPa | 0 mm | - | 185 W/m² | - |
| 1777987977 | 22.78° C | 79% | 1003.7 hPa | 0 mm | - | 132 W/m² | - |
| 1777987672 | 22.78° C | 78% | 1003.4 hPa | 0 mm | - | 115 W/m² | - |
| 1777987370 | 22.78° C | 79% | 1003.5 hPa | 0 mm | - | 120 W/m² | - |
| 1777987067 | 22.78° C | 79% | 1003.5 hPa | 0 mm | - | 123 W/m² | - |
| 1777986764 | 22.78° C | 79% | 1003.4 hPa | 0 mm | - | 117 W/m² | - |
| 1777986462 | 22.78° C | 79% | 1003.3 hPa | 0 mm | - | 122 W/m² | - |
| 1777986160 | 22.22° C | 80% | 1003.1 hPa | 0 mm | - | 80 W/m² | - |
| 1777985857 | 22.22° C | 80% | 1003.2 hPa | 0 mm | - | 69 W/m² | - |
| 1777985554 | 22.22° C | 80% | 1003.1 hPa | 0 mm | - | 82 W/m² | - |
* Rain latest hour (hover to see other rain measurements)
** Current wind speed in m/s (hover to see current wind gust speed)